Tracking 26951 objects as of 3-Feb-2023
HD Live streaming from Space Station
objects crossing your sky now

STARLINK-3068

Track STARLINK-3068 now!
10-day predictions
STARLINK-3068 is classified as:


NORAD ID: 49154
Int'l Code: 2021-082AA
Perigee: 577.0 km
Apogee: 581.3 km
Inclination: 70.0 °
Period: 96.1 minutes
Semi major axis: 6950 km
RCS: Unknown
Launch date: September 14, 2021
Source: United States (US)
Launch site: AIR FORCE WESTERN TEST RANGE (AFWTR)
Your satellite tracking list
Your tracking list is empty




NASA's NSSDC Master Catalog

Two Line Element Set (TLE):
1 49154U 21082AA  23034.01419772  .00001867  00000-0  16423-3 0  9990
2 49154  69.9977 245.2827 0003118 266.1540  93.9262 14.98335617 78181
Source of the keplerian elements: AFSPC